Juneau, WI

11:11 PM CDT on July 20, 2017 (GMT -0500)
Dodge County

Weather History for KUNU - May, 2013

Change the Weather History Date:

Friday, May 10, 2013

  Actual Average Record
Temperature  
Mean Temperature 44 °F -  
Max Temperature 49 °F 63 °F 85 °F (1987)
Min Temperature 40 °F 44 °F 28 °F (1990)
Degree Days  
Heating Degree Days 20    
Moisture  
Dew Point 41 °F    
Average Humidity 91    
Maximum Humidity 100    
Minimum Humidity 77    
Precipitation  
Precipitation 0.63 in - - ()
Sea Level Pressure  
Sea Level Pressure 29.95 in    
Wind  
Wind Speed 14 mph (North)    
Max Wind Speed 22 mph    
Max Gust Speed 30 mph    
Visibility 8 miles    
Events Rain    
Averages and records for this station are not official NWS values.
T = Trace of Precipitation, MM = Missing Value Source: NWS Daily Summary

Daily Weather History Graph

Daily Weather History Graph

Search for Another Location

Airport or City:

Trip Planner

Search our weather history database for the weather conditions in past years. The results will help you decide how hot, cold, wet, or windy it might be!

Date:

Astronomy

May. 10, 2013 Rise Set
Actual Time 5:35 AM CDT 8:07 PM CDT
Civil Twilight 5:03 AM CDT 8:39 PM CDT
Nautical Twilight 4:22 AM CDT 9:20 PM CDT
Astronomical Twilight 3:37 AM CDT 10:06 PM CDT
Moon 5:59 AM CDT (5/10) 8:57 PM CDT (5/10)
Length of Visible Light 15h 36m
Length of Day
14h 31m
New Moon, 0% of the Moon is Illuminated
May 10
New Moon
May 17
First Quarter
May 24
Full
May 31
Last Quarter
Jun 8
New

Hourly Weather History & Observations

Time (CDT) Temp. Windchill Dew Point Humidity Pressure Visibility Wind Dir Wind Speed Gust Speed Precip Events Conditions
12:15 AM 44.2 °F 37.0 °F 43.2 °F 96% 29.92 in 7.0 mi NE 16.1 mph 25.3 mph 0.01 in Rain Light Rain
1:15 AM 43.7 °F 36.3 °F 42.6 °F 96% 29.91 in 7.0 mi NNE 16.1 mph 26.5 mph 0.02 in Rain Light Rain
1:35 AM 43.7 °F 36.9 °F 42.8 °F 97% 29.91 in 5.0 mi NNE 13.8 mph - 0.06 in Rain Rain
1:55 AM 43.2 °F 35.6 °F 42.3 °F 97% 29.90 in 5.0 mi NNE 16.1 mph 21.9 mph 0.11 in Rain Rain
2:15 AM 42.8 °F 34.8 °F 41.9 °F 97% 29.89 in 7.0 mi NNE 17.3 mph 24.2 mph 0.03 in Rain Rain
2:35 AM 42.8 °F 35.8 °F 41.9 °F 97% 29.89 in 7.0 mi North 13.8 mph 20.7 mph 0.06 in Rain Rain
2:55 AM 42.3 °F 34.1 °F 41.4 °F 97% 29.90 in 4.0 mi North 17.3 mph 25.3 mph 0.12 in Rain Rain
3:15 AM 42.1 °F 34.2 °F 41.0 °F 96% 29.90 in 4.0 mi North 16.1 mph 24.2 mph 0.06 in Rain Rain
3:35 AM 41.9 °F 33.1 °F 41.0 °F 97% 29.89 in 4.0 mi North 19.6 mph 25.3 mph 0.12 in Rain Rain
3:55 AM 41.9 °F 34.3 °F 41.0 °F 97% 29.89 in 5.0 mi North 15.0 mph 25.3 mph 0.17 in Rain Rain
4:15 AM 41.9 °F 33.1 °F 41.0 °F 97% 29.89 in 2.5 mi North 19.6 mph 26.5 mph 0.06 in Rain Heavy Rain
4:35 AM 42.1 °F 33.9 °F 41.2 °F 97% 29.89 in 5.0 mi North 17.3 mph 26.5 mph 0.10 in Rain Rain
4:55 AM 42.3 °F 34.1 °F 41.4 °F 97% 29.89 in 7.0 mi North 17.3 mph 25.3 mph 0.13 in Rain Light Rain
5:15 AM 42.3 °F 33.8 °F 41.4 °F 97% 29.89 in 7.0 mi NNE 18.4 mph 29.9 mph 0.03 in Rain Rain
5:35 AM 41.9 °F 33.1 °F 41.0 °F 97% 29.89 in 5.0 mi NNE 19.6 mph 28.8 mph 0.07 in Rain Rain
5:55 AM 41.5 °F 32.9 °F 40.5 °F 96% 29.90 in 10.0 mi NNE 18.4 mph 27.6 mph 0.09 in Rain Light Rain
6:15 AM 41.9 °F 34.0 °F 40.6 °F 95% 29.91 in 10.0 mi North 16.1 mph 21.9 mph N/A Rain Light Rain
6:35 AM 41.9 °F 34.0 °F 40.6 °F 95% 29.92 in 10.0 mi North 16.1 mph 21.9 mph 0.01 in Rain Light Rain
7:15 AM 41.4 °F 33.0 °F 40.3 °F 96% 29.93 in 10.0 mi North 17.3 mph 24.2 mph N/A   Drizzle
7:35 AM 41.5 °F 33.8 °F 40.5 °F 96% 29.93 in 10.0 mi North 15.0 mph 27.6 mph N/A   Light Drizzle
8:15 AM 41.2 °F 32.4 °F 40.1 °F 96% 29.94 in 10.0 mi North 18.4 mph 25.3 mph N/A   Overcast
8:35 AM 41.4 °F 32.4 °F 40.3 °F 96% 29.94 in 10.0 mi North 19.6 mph 25.3 mph N/A   Light Drizzle
8:55 AM 41.4 °F 31.9 °F 40.3 °F 96% 29.95 in 10.0 mi North 21.9 mph 28.8 mph N/A   Overcast
9:15 AM 41.7 °F 32.3 °F 40.3 °F 95% 29.95 in 10.0 mi North 21.9 mph 28.8 mph N/A   Overcast
9:35 AM 41.5 °F 32.4 °F 39.9 °F 94% 29.95 in 10.0 mi North 20.7 mph 26.5 mph N/A   Overcast
9:55 AM 41.9 °F 33.4 °F 40.1 °F 93% 29.96 in 10.0 mi North 18.4 mph 24.2 mph N/A   Overcast
10:15 AM 41.2 °F 33.4 °F 39.9 °F 95% 29.97 in 7.0 mi North 15.0 mph 23.0 mph N/A   Overcast
10:35 AM 41.0 °F 32.5 °F 40.1 °F 97% 29.98 in 10.0 mi North 17.3 mph 24.2 mph N/A   Overcast
10:55 AM 40.8 °F 32.9 °F 39.9 °F 97% 29.99 in 10.0 mi North 15.0 mph 21.9 mph N/A   Overcast
11:15 AM 40.5 °F 32.1 °F 39.6 °F 97% 29.99 in 10.0 mi North 16.1 mph 23.0 mph N/A   Overcast
11:35 AM 40.6 °F 32.7 °F 39.6 °F 96% 29.99 in 10.0 mi North 15.0 mph 21.9 mph N/A   Overcast
12:15 PM 41.0 °F 33.9 °F 39.4 °F 94% 30.00 in 10.0 mi North 12.7 mph - N/A   Overcast
12:35 PM 41.0 °F 35.2 °F 40.1 °F 97% 30.00 in 7.0 mi North 9.2 mph 20.7 mph N/A   Overcast
12:55 PM 41.4 °F 33.3 °F 40.3 °F 96% 30.00 in 7.0 mi North 16.1 mph - N/A   Overcast
1:15 PM 42.1 °F 34.9 °F 40.3 °F 93% 30.00 in 10.0 mi North 13.8 mph 19.6 mph N/A   Overcast
1:35 PM 42.8 °F 36.2 °F 41.0 °F 93% 29.99 in 10.0 mi North 12.7 mph 16.1 mph N/A   Overcast
1:55 PM 43.9 °F 37.9 °F 40.6 °F 88% 30.00 in 10.0 mi North 11.5 mph 17.3 mph N/A   Overcast
2:15 PM 44.2 °F 37.3 °F 40.8 °F 88% 30.00 in 10.0 mi North 15.0 mph 20.7 mph N/A   Overcast
2:35 PM 44.8 °F 38.7 °F 40.5 °F 85% 30.00 in 10.0 mi North 12.7 mph 17.3 mph N/A   Overcast
2:55 PM 45.7 °F 39.8 °F 40.8 °F 83% 29.99 in 10.0 mi North 12.7 mph 17.3 mph N/A   Overcast
3:15 PM 45.1 °F 38.8 °F 40.1 °F 82% 30.00 in 10.0 mi North 13.8 mph - N/A   Overcast
3:35 PM 45.5 °F 40.8 °F 40.6 °F 83% 29.99 in 10.0 mi North 9.2 mph - N/A   Overcast
3:55 PM 45.9 °F 40.0 °F 41.4 °F 84% 29.98 in 10.0 mi North 12.7 mph - N/A   Overcast
4:15 PM 47.1 °F - 41.2 °F 80% 29.98 in 10.0 mi North 11.5 mph - N/A   Overcast
4:35 PM 48.2 °F - 41.2 °F 77% 29.97 in 10.0 mi North 11.5 mph - N/A   Overcast
4:55 PM 48.4 °F - 41.5 °F 77% 29.97 in 10.0 mi North 12.7 mph 16.1 mph N/A   Overcast
5:15 PM 48.6 °F - 41.9 °F 78% 29.97 in 10.0 mi North 11.5 mph - N/A   Overcast
5:35 PM 48.7 °F - 41.7 °F 77% 29.97 in 10.0 mi North 8.1 mph - N/A   Overcast
5:55 PM 49.1 °F - 42.3 °F 77% 29.97 in 10.0 mi North 5.8 mph - N/A   Overcast
6:15 PM 49.1 °F - 42.6 °F 78% 29.97 in 10.0 mi North 6.9 mph - N/A   Overcast
6:35 PM 49.1 °F - 43.2 °F 80% 29.97 in 10.0 mi North 5.8 mph - N/A   Overcast
6:55 PM 49.3 °F - 43.0 °F 79% 29.97 in 10.0 mi North 4.6 mph - N/A   Overcast
7:15 PM 49.5 °F - 42.6 °F 77% 29.97 in 10.0 mi Calm Calm - N/A   Scattered Clouds
7:35 PM 48.7 °F - 41.9 °F 77% 29.97 in 10.0 mi Calm Calm - N/A   Clear
7:55 PM 47.8 °F - 42.3 °F 81% 29.96 in 10.0 mi Calm Calm - N/A   Clear
8:15 PM 47.3 °F - 43.2 °F 86% 29.96 in 10.0 mi Calm Calm - N/A   Clear
8:35 PM 46.8 °F - 43.0 °F 87% 29.96 in 10.0 mi Calm Calm - N/A   Clear
8:55 PM 45.5 °F - 42.1 °F 88% 29.97 in 10.0 mi Calm Calm - N/A   Clear
9:15 PM 45.0 °F - 43.2 °F 93% 29.97 in 10.0 mi Calm Calm - N/A   Clear
9:35 PM 44.4 °F - 43.5 °F 97% 29.98 in 7.0 mi Calm Calm - N/A   Clear
9:55 PM 44.1 °F - 43.3 °F 97% 29.97 in 7.0 mi Calm Calm - N/A   Clear
10:15 PM 43.5 °F 41.9 °F 43.0 °F 98% 29.97 in 5.0 mi SSE 3.5 mph - N/A   Clear
10:35 PM 42.6 °F 40.9 °F 42.1 °F 98% 29.97 in 5.0 mi South 3.5 mph - N/A   Clear
10:55 PM 43.3 °F 40.7 °F 43.2 °F 99% 29.97 in 5.0 mi SSE 4.6 mph - N/A   Clear
11:15 PM 42.6 °F 40.9 °F 42.4 °F 99% 29.97 in 5.0 mi South 3.5 mph - N/A   Clear
11:35 PM 42.6 °F 40.9 °F 42.4 °F 99% 29.96 in 5.0 mi South 3.5 mph - N/A   Clear
11:55 PM 43.2 °F 40.5 °F 43.2 °F 100% 29.95 in 4.0 mi South 4.6 mph - N/A   Clear